GFSFLT2_925_thetae_180.txt.gz
Theta_e
292 292 292 291 289 290 290 290 290 290 290 290 291 291 291 292 291 291 292 291 291 292 292 292 293 293 294
291 291 290 289 290 290 290 290 290 289 289 290 290 290 291 290 290 290 290 290 291 291 291 291 292 292 291
290 290 290 290 289 289 289 289 288 288 288 289 289 289 289 289 289 289 289 289 290 290 290 290 290 290 291
290 289 289 289 289 288 288 287 287 286 286 287 287 287 287 288 287 287 287 288 289 289 290 290 290 290 291
289 289 289 288 287 287 287 286 285 285 285 286 286 286 286 286 286 287 288 288 289 289 289 290 290 290 290
289 288 287 286 286 286 287 285 285 285 285 285 285 285 285 285 286 286 287 288 289 289 289 289 289 290 290
288 287 287 287 287 287 286 285 285 285 285 285 285 284 285 285 285 286 287 288 287 288 288 289 289 290 290
287 287 287 287 286 286 285 285 284 284 283 283 283 284 284 284 284 286 287 286 287 288 288 289 289 289 289
286 286 285 285 284 285 284 284 283 282 282 282 283 283 284 284 284 285 286 285 286 287 287 288 288 289 289
284 284 284 283 284 284 283 283 283 283 283 283 283 283 284 284 284 284 284 284 285 285 286 287 288 288 288
284 283 283 283 283 282 282 282 283 283 283 283 283 283 284 284 283 283 283 283 284 284 285 286 286 286 287
282 282 282 282 282 281 281 281 281 281 281 282 283 283 283 283 283 283 283 284 284 284 285 286 285 285 285
282 282 281 281 281 280 281 280 280 281 281 281 281 281 282 283 283 283 284 283 284 285 285 286 286 285 284
281 281 280 281 280 280 281 280 280 280 281 281 281 281 282 283 283 283 283 283 284 284 285 285 285 285 284
280 280 280 280 280 281 280 280 280 280 280 280 281 281 282 282 282 283 283 283 284 283 283 283 284 284 285
280 279 279 279 280 280 280 280 280 280 280 280 281 281 281 281 282 282 282 282 281 282 283 283 284 283 283
279 279 279 280 279 279 279 280 280 279 280 280 280 280 279 279 280 281 281 281 282 282 282 282 282 282 282

GFSFLT2_925_thetae_183.txt.gz
Theta_e
291 291 290 289 289 289 289 289 289 289 289 290 290 290 290 290 291 291 291 290 290 291 291 291 292 293 294
290 290 289 289 289 288 288 287 288 287 288 287 288 289 289 289 289 289 290 289 289 290 291 290 290 290 291
289 289 289 289 288 287 286 286 286 286 285 286 286 287 287 288 288 288 288 288 288 289 290 290 290 290 290
289 289 289 288 287 286 286 286 286 285 284 285 285 285 286 286 286 286 287 288 288 289 289 290 290 290 291
289 288 288 286 286 286 286 286 285 285 284 284 284 284 284 284 284 285 286 287 289 290 290 290 289 290 290
289 287 286 286 286 286 286 285 285 285 284 283 283 283 283 284 284 285 286 287 289 287 288 288 289 290 290
287 286 286 286 286 285 284 285 284 284 283 282 282 282 283 283 284 285 286 288 287 286 287 289 289 289 289
286 286 285 285 285 284 284 284 283 283 282 282 282 282 283 283 283 285 286 286 286 286 287 288 288 288 289
285 284 285 284 284 284 283 282 282 283 282 282 282 283 283 283 283 284 284 284 285 285 286 286 287 288 287
283 283 282 282 282 282 282 282 282 282 282 282 282 282 282 283 284 283 282 283 283 284 285 285 287 287 286
283 282 282 281 281 281 281 280 281 281 281 281 281 282 282 282 282 282 283 282 283 283 284 285 286 286 285
282 282 281 281 280 281 280 281 280 280 280 280 281 281 281 281 281 282 282 282 283 283 284 284 284 284 285
282 281 280 280 280 280 280 280 280 280 280 280 280 280 280 280 281 281 282 282 282 283 283 283 283 283 284
281 280 280 280 279 279 280 280 280 279 279 280 280 280 280 280 281 281 281 282 282 282 282 282 283 283 283
281 280 279 279 279 279 279 279 279 279 279 279 280 279 279 280 280 280 281 281 281 281 280 281 281 282 283
281 281 279 279 279 279 278 278 279 279 279 279 280 279 278 278 279 280 279 280 280 280 280 280 280 281 282
280 280 279 279 278 278 278 278 278 278 278 280 279 279 277 277 278 279 279 278 279 279 279 279 280 280 280

GFSFLT2_925_thetae_186.txt.gz
Theta_e
290 290 289 289 288 287 287 286 287 287 288 289 288 289 289 290 290 290 290 290 290 290 290 291 292 292 293
289 289 289 289 288 287 287 286 286 286 287 287 287 287 287 288 288 288 288 288 288 289 290 291 291 291 292
289 289 289 288 287 286 286 286 286 286 285 285 285 285 286 286 287 287 287 287 288 289 289 289 290 291 291
289 288 288 287 286 286 286 286 285 285 285 284 284 284 284 285 285 285 285 287 287 289 290 290 290 290 290
288 288 287 286 286 286 285 285 284 285 284 283 283 282 283 283 283 284 286 286 287 289 288 288 289 289 290
287 286 286 286 285 285 284 284 284 284 283 282 282 282 282 282 283 284 285 286 287 289 288 287 288 289 289
286 286 285 285 285 284 284 284 283 282 282 282 282 282 282 282 282 284 285 285 286 286 286 286 288 288 288
286 285 284 285 284 284 283 282 282 282 281 282 282 282 281 282 283 284 285 284 285 285 286 286 286 287 288
285 283 284 283 283 282 281 281 281 281 281 281 281 281 281 282 283 283 284 283 284 284 285 285 286 287 287
283 282 282 282 281 280 280 281 280 280 282 280 281 281 281 282 283 281 281 282 282 283 284 285 285 285 286
282 282 282 281 280 280 280 280 280 280 280 280 280 280 281 281 280 280 281 281 281 282 283 283 284 284 284
281 282 281 280 279 279 279 279 280 280 280 279 280 280 280 279 280 280 280 280 281 281 282 282 282 282 283
281 281 280 279 279 279 279 279 279 279 279 279 279 279 279 279 279 279 280 280 280 282 281 281 280 281 281
280 280 280 280 279 279 278 279 278 278 279 279 279 279 279 278 278 278 279 279 280 280 280 280 280 280 280
280 280 280 280 280 278 278 278 277 277 278 278 278 279 279 278 278 277 278 279 279 279 279 279 279 280 280
280 280 279 279 279 279 278 277 277 277 277 277 278 278 278 278 278 279 278 278 278 278 278 278 278 279 279
280 279 279 279 278 278 277 277 276 276 277 278 278 277 276 277 278 279 279 278 278 277 278 278 278 278 279

GFSFLT2_925_thetae_189.txt.gz
Theta_e
290 289 289 288 288 287 287 286 286 286 288 289 288 288 288 288 289 289 289 289 289 290 290 291 292 292 293
288 289 288 288 287 287 286 286 286 286 287 287 287 287 287 287 287 288 288 288 288 288 289 290 290 292 292
289 289 288 287 286 286 286 286 285 285 285 285 285 286 285 285 286 286 286 286 287 288 288 290 290 290 291
288 288 287 286 286 285 285 285 284 285 285 284 284 284 283 284 284 284 285 286 287 287 288 290 289 289 289
287 287 286 286 285 285 284 284 284 284 284 283 282 282 282 282 282 283 285 286 286 287 289 290 288 288 289
286 286 285 285 285 284 284 283 283 283 282 282 282 282 282 282 282 284 285 286 286 286 287 287 287 287 288
286 285 284 284 284 284 283 283 282 282 281 281 281 282 281 281 282 284 285 286 285 285 286 286 286 287 287
285 284 284 284 283 283 283 281 281 281 281 280 281 281 280 281 282 283 285 285 284 284 285 285 286 286 287
285 283 283 283 282 282 280 280 280 280 280 281 280 280 280 281 282 283 283 282 282 283 284 284 285 286 285
283 282 282 282 280 280 279 279 279 279 281 280 280 280 279 280 281 280 280 280 281 281 282 283 284 284 284
282 281 281 281 280 279 279 279 279 279 279 280 280 279 279 279 279 279 279 279 279 280 280 282 283 283 283
281 280 280 280 280 279 279 278 278 279 279 279 279 279 279 278 279 279 278 278 279 279 281 280 280 280 281
280 280 280 280 280 280 279 278 278 278 278 278 278 278 279 278 278 278 279 278 278 280 279 279 279 279 279
280 280 280 280 280 280 279 278 278 277 278 277 278 278 278 278 277 277 278 277 278 278 278 278 278 279 279
280 280 279 279 279 279 278 278 277 276 276 277 277 278 278 277 276 278 278 277 278 278 278 278 278 278 279
280 280 279 277 277 278 278 277 276 276 276 277 277 276 276 277 278 278 278 278 278 278 278 277 278 278 278
279 279 278 277 277 277 276 276 275 276 276 277 277 275 274 274 276 278 279 278 278 278 278 277 277 278 278

GFSFLT2_925_thetae_192.txt.gz
Theta_e
290 288 288 288 288 287 286 286 286 286 288 289 289 288 288 288 288 288 289 289 290 289 290 290 291 291 293
288 289 288 288 287 286 286 285 285 285 286 287 287 287 287 287 287 287 287 287 287 288 288 289 290 291 291
288 288 287 287 286 285 285 285 285 285 285 285 285 285 285 286 286 286 285 286 287 288 288 288 289 291 290
287 287 287 286 285 284 284 284 284 285 284 283 284 283 283 284 284 283 284 285 286 287 288 289 289 290 289
286 286 285 285 284 284 284 283 283 284 283 282 283 283 283 282 282 283 284 285 286 287 287 287 288 288 288
286 285 285 284 284 284 283 283 282 283 282 282 282 282 282 282 282 283 284 285 287 286 285 286 286 287 287
285 285 284 284 284 283 283 282 281 281 280 280 281 282 281 282 281 283 284 285 286 286 284 285 286 286 286
285 285 284 284 283 282 282 281 280 280 280 280 281 280 280 282 281 283 284 284 283 283 284 284 284 285 286
285 284 283 282 283 281 280 279 279 280 279 280 280 280 280 281 281 282 281 281 281 282 282 283 283 284 285
283 282 281 281 281 280 279 278 278 279 280 279 279 280 279 279 280 279 279 279 280 280 281 281 282 283 283
282 281 281 280 280 280 279 278 278 278 278 279 279 279 279 279 279 278 278 279 279 279 279 280 281 281 281
281 281 280 280 280 280 280 279 279 278 278 278 278 278 278 278 278 278 278 278 279 278 279 279 279 279 280
280 280 280 280 280 279 279 279 279 278 278 277 277 277 277 277 277 277 278 278 278 279 278 279 279 278 278
280 280 280 279 279 278 278 278 278 277 278 278 277 276 276 276 276 276 277 277 278 278 278 278 278 278 278
280 280 279 278 277 277 278 277 276 276 277 278 277 277 277 276 275 276 277 277 278 278 278 277 278 278 279
280 279 279 278 277 277 277 276 276 276 276 277 277 276 276 276 277 277 277 277 278 278 278 277 277 278 278
279 278 278 278 277 277 277 276 275 275 276 276 276 275 274 274 276 277 277 277 277 277 277 277 277 278 278

GFSFLT2_925_thetae_195.txt.gz
Theta_e
290 289 288 288 288 287 286 286 286 286 286 289 289 289 289 288 289 289 289 289 289 289 290 290 291 291 291
289 288 288 288 287 286 285 285 285 285 286 287 288 287 287 287 287 287 288 287 287 288 289 289 290 290 291
288 288 287 287 286 285 285 285 285 285 285 285 284 285 285 285 286 286 286 285 286 287 288 289 289 290 291
287 287 286 286 285 284 285 284 284 284 284 284 284 283 283 283 283 283 283 285 286 287 288 287 288 288 289
287 286 286 285 284 284 284 284 284 283 283 283 282 282 282 282 282 283 284 285 286 287 287 287 287 287 288
286 286 285 284 284 284 283 283 284 282 282 282 282 282 282 282 282 283 284 285 286 287 288 286 286 286 287
285 285 284 284 283 284 283 282 282 282 281 282 282 282 282 281 281 282 285 285 284 284 284 284 285 285 285
285 285 284 284 283 283 282 281 281 281 280 281 281 281 281 281 281 281 284 283 282 283 283 283 283 284 284
285 284 283 282 283 281 281 280 280 280 280 280 281 280 280 280 280 281 282 281 281 281 281 282 282 283 283
283 282 281 281 281 280 280 280 279 279 280 279 279 280 280 279 280 279 280 279 280 280 280 281 281 281 282
282 281 281 280 280 280 280 280 279 279 279 279 279 279 278 279 279 279 279 279 279 279 279 280 280 281 281
281 281 280 280 280 280 279 279 279 279 279 278 278 278 278 277 278 278 278 278 279 279 279 279 279 280 280
281 281 280 280 280 279 279 278 278 278 278 278 278 277 277 277 277 277 278 278 278 279 279 279 279 279 279
281 281 280 280 279 279 278 278 278 278 278 278 277 276 276 277 277 277 278 278 278 278 278 278 279 279 279
281 280 280 279 279 278 278 277 277 277 276 277 277 277 277 276 275 277 277 278 278 278 278 278 279 279 279
280 280 279 278 277 277 277 276 276 276 276 276 276 275 276 277 277 277 277 277 278 278 278 278 278 279 279
280 279 278 278 277 276 276 275 275 275 275 276 275 275 276 277 277 277 277 277 277 277 278 278 278 278 278